Wind_Speed
18 19 20 22 24 21 19 21 10 21 14 16 21 16 16 14 13 13 14 13 11 10 10 11 12 13 14 15 17 17 15 15 15 13 11 10 9 9 7 6 10 13 14 13
7 19 18 21 23 22 19 23 26 28 28 26 21 10 9 9 10 12 12 14 14 13 11 11 12 13 13 14 13 15 17 17 15 12 10 10 9 8 7 5 6 8 10 12
9 3 11 13 14 7 9 9 21 15 14 10 9 8 10 11 13 15 10 13 14 16 15 18 18 15 14 14 12 14 16 17 16 13 11 10 9 7 5 4 4 3 6 8
6 4 7 4 10 9 12 9 19 15 13 10 11 12 11 12 14 15 12 16 16 15 20 21 19 18 16 12 13 15 17 17 16 14 13 10 8 7 5 3 3 2 4 5
4 5 14 15 6 2 1 8 15 17 12 8 10 7 12 12 11 13 19 18 22 27 25 22 20 18 15 14 14 14 18 18 17 15 14 12 10 8 5 4 2 2 2 4
3 5 6 6 2 1 3 9 5 4 10 11 12 13 13 16 17 20 24 25 24 27 25 24 25 16 14 16 15 18 20 21 17 16 15 14 11 9 7 5 4 2 1 2
12 8 10 11 5 4 6 4 5 11 12 15 14 13 19 18 20 22 24 25 27 26 24 24 23 17 15 16 20 25 23 20 18 17 17 15 12 10 9 8 6 4 2 1
5 5 11 7 3 5 10 18 20 20 18 17 18 19 19 19 19 19 21 24 26 24 24 26 24 18 18 19 28 20 22 21 21 19 18 16 15 13 12 11 9 7 5 2
8 8 8 8 15 15 15 17 15 13 17 19 21 21 21 20 22 20 22 23 27 26 27 28 27 25 23 27 22 18 17 22 22 20 20 18 17 16 15 14 12 10 8 6
15 13 19 16 19 18 19 14 22 22 22 22 21 21 23 20 19 19 23 23 26 27 25 26 28 27 28 28 25 18 18 19 21 21 21 20 19 18 17 16 14 12 10 8
22 19 22 23 18 23 21 22 23 23 21 19 20 22 20 19 19 18 22 27 26 25 24 27 29 28 30 27 23 22 20 19 19 20 22 21 22 21 21 18 18 15 13 11
20 22 19 23 20 21 23 21 19 19 21 20 19 21 18 17 20 22 23 29 28 27 28 29 30 29 29 25 22 21 20 18 19 19 18 19 19 17 20 18 20 18 13 13
14 21 23 22 21 16 13 18 16 15 16 17 18 19 17 16 21 28 29 29 27 28 30 31 31 32 28 24 23 23 21 18 16 19 18 19 19 17 15 14 15 17 15 15
17 11 13 11 7 14 14 15 18 20 20 19 21 19 20 17 24 23 25 29 30 30 29 30 30 30 27 25 24 23 22 22 19 19 19 19 21 20 18 17 16 14 14 15
9 10 9 8 10 12 14 14 16 16 15 18 24 20 20 16 16 21 28 29 28 28 28 27 27 27 24 23 21 20 19 17 18 19 20 22 21 21 20 18 17 17 15 13
5 7 11 10 10 12 13 13 14 14 13 16 17 20 24 24 24 25 27 26 22 15 26 25 24 23 21 20 18 18 18 20 17 19 19 20 22 21 20 19 18 18 18 19
7 8 9 10 11 15 16 15 14 15 15 16 18 25 24 23 24 24 24 24 22 23 21 20 23 25 23 19 18 17 16 14 18 18 19 20 21 21 22 21 20 19 19 23
15 15 12 13 14 15 17 17 15 19 15 22 23 23 22 18 16 22 26 26 23 23 20 21 26 27 27 21 17 16 15 13 13 17 19 19 20 21 22 22 22 20 18 20
17 14 15 16 19 15 15 16 20 22 23 22 21 18 22 23 23 26 28 24 20 13 20 28 29 29 25 24 19 13 13 12 14 15 18 19 19 20 21 22 22 21 20 22
16 19 20 21 24 22 16 24 24 24 22 21 22 21 17 21 25 25 24 19 21 20 22 28 27 26 27 25 19 13 12 15 14 14 15 16 18 19 20 22 22 20 22 22
15 17 15 18 18 25 24 26 23 21 25 21 20 19 22 29 26 24 18 10 22 18 24 26 23 23 24 22 16 11 12 12 11 12 12 13 16 17 19 21 22 24 22 22
15 13 15 21 19 21 27 25 25 24 23 24 22 21 22 25 24 24 21 19 25 19 24 24 23 22 20 16 14 11 9 10 11 12 13 16 16 18 19 21 21 21 22 23
17 19 20 19 17 22 28 28 27 25 24 23 21 21 21 23 23 13 12 17 17 19 22 21 18 16 18 16 11 7 5 7 10 13 15 17 18 20 21 22 23 25 25 25
21 20 21 25 23 21 17 29 29 26 25 23 22 24 23 20 21 20 21 23 19 19 18 12 16 16 13 10 6 2 6 11 14 17 18 21 22 24 25 26 27 27 27 24
24 24 24 21 13 13 23 28 26 25 24 22 20 20 22 21 19 22 23 21 17 14 13 13 12 10 9 7 5 6 9 13 16 19 21 23 24 26 27 29 30 29 25 22
22 17 22 26 23 25 25 24 15 21 20 17 19 18 21 22 21 16 19 16 13 8 8 8 8 7 7 8 10 13 15 17 19 22 25 26 28 29 29 28 25 24 23 20
24 27 22 21 24 23 23 22 16 15 20 18 18 19 21 22 20 17 15 11 9 5 3 3 5 6 8 11 14 15 16 17 19 25 26 28 28 28 26 25 24 22 21 19
Wind_Direction
255 271 275 269 268 259 229 230 231 264 266 284 303 310 311 317 318 323 331 343 339 324 321 317 300 281 274 272 262 245 241 245 253 263 269 277 286 283 296 333 353 354 358 359
270 270 264 268 268 254 245 244 242 258 274 280 280 299 300 332 331 319 321 332 331 320 311 308 305 297 286 276 261 239 242 248 251 250 259 267 271 274 284 309 343 348 1 4
273 348 309 273 259 222 206 216 222 233 235 243 285 330 323 316 311 313 301 321 325 321 311 307 304 297 283 279 258 241 244 250 251 252 249 250 262 269 269 298 308 314 347 358
291 317 255 309 281 291 241 235 213 244 257 284 296 296 293 296 295 313 313 317 313 314 309 302 301 292 284 275 254 243 242 245 248 247 250 245 243 256 272 268 281 298 322 344
259 241 298 292 280 125 217 287 231 239 269 293 317 295 287 314 309 310 305 299 296 303 304 295 291 290 281 272 254 242 244 242 241 240 242 242 241 233 233 247 239 276 318 345
186 257 272 26 55 7 225 285 83 158 342 324 324 306 306 314 314 303 301 298 297 301 298 293 288 291 276 269 258 241 242 241 236 233 233 233 235 227 214 207 219 208 290 4
234 259 270 270 299 283 258 17 323 345 327 299 298 301 310 309 303 298 297 295 296 294 294 292 294 290 272 273 260 255 252 237 236 228 230 228 220 216 210 197 195 199 186 32
214 250 281 267 233 216 343 334 320 303 306 311 311 309 303 302 300 301 304 307 304 300 297 299 294 286 274 270 271 270 256 239 232 227 221 221 214 204 208 202 197 201 193 190
232 247 274 287 293 299 297 293 298 302 307 309 307 306 308 307 306 303 303 301 302 300 299 297 293 289 279 273 276 262 249 249 224 220 218 213 212 208 198 206 208 199 204 195
273 265 271 280 308 295 301 316 314 311 315 310 305 308 306 308 303 303 303 304 306 303 297 294 292 292 285 281 285 260 249 249 240 214 213 210 210 212 208 204 208 208 197 200
272 277 278 287 300 308 316 313 308 307 307 307 307 306 307 308 306 306 306 307 307 301 295 290 292 289 286 283 278 263 251 237 235 229 214 209 210 209 210 214 207 205 205 193
276 289 293 289 307 313 307 306 311 308 307 310 308 304 310 308 313 311 310 309 304 300 297 295 294 288 282 285 276 258 255 242 224 216 220 216 209 209 215 210 216 210 210 200
286 288 291 291 299 306 311 290 298 310 308 310 311 305 302 303 309 313 310 305 302 302 303 299 294 288 286 286 273 256 247 242 223 212 207 213 212 203 196 206 214 215 208 205
301 333 303 320 312 313 307 307 311 306 305 311 314 312 307 301 306 311 307 308 308 307 303 298 295 290 295 285 274 257 249 235 216 208 203 210 211 204 194 182 179 187 202 193
352 333 300 278 276 290 306 315 312 310 316 318 313 310 302 296 298 306 306 311 314 311 306 308 308 303 303 294 281 262 249 238 219 211 208 202 209 202 194 186 184 174 166 171
324 300 281 285 286 283 295 295 291 300 314 307 309 309 311 300 296 301 310 314 318 315 313 312 311 315 316 304 289 272 254 239 215 202 202 202 198 197 189 183 174 170 171 169
250 277 285 289 303 306 302 298 294 294 295 298 305 310 309 306 298 295 303 308 304 307 313 320 319 318 316 313 294 274 264 252 224 202 197 201 199 195 188 180 175 172 174 174
238 264 281 281 288 293 293 296 290 290 290 296 298 304 306 306 302 300 299 303 301 307 307 321 323 322 319 310 299 273 259 246 222 204 197 200 194 190 185 179 173 169 168 178
266 267 272 275 280 286 293 295 296 292 289 292 295 299 299 296 301 298 298 300 300 303 310 324 326 323 315 315 313 276 252 235 216 201 198 200 185 181 178 171 168 166 161 165
269 265 266 272 279 279 288 291 298 293 290 286 286 295 298 302 304 305 300 293 292 288 300 316 318 315 318 320 317 279 250 229 214 199 192 188 173 170 167 162 158 157 156 160
267 265 275 282 280 281 282 285 291 290 294 291 288 290 297 303 303 307 300 297 301 308 320 325 317 313 319 321 318 283 258 224 201 190 185 174 161 156 153 150 151 150 148 153
273 269 273 279 280 284 286 285 286 285 285 289 290 285 293 297 302 303 297 282 293 307 324 321 320 327 319 319 313 294 259 212 195 182 165 156 151 145 140 137 134 136 140 148
281 277 277 277 275 279 284 284 282 281 282 286 292 290 287 288 296 301 302 310 303 316 320 323 329 325 328 325 318 300 241 190 165 155 144 137 131 126 125 127 129 137 139 142
284 283 279 280 281 280 276 281 282 282 278 279 277 277 275 291 296 293 289 294 294 317 320 319 329 333 339 342 344 51 123 128 128 126 123 126 124 124 123 126 126 133 136 137
281 279 279 280 277 273 274 275 280 278 278 277 276 274 278 278 270 289 302 292 296 312 314 318 336 351 3 18 48 85 109 120 128 125 120 118 117 118 123 128 133 136 138 144
276 276 278 275 270 272 274 276 271 274 275 278 280 282 282 284 287 289 298 289 292 305 305 330 354 23 48 73 89 97 102 108 116 118 120 119 122 124 126 128 131 137 139 138
278 276 274 273 270 267 264 263 266 269 272 269 272 282 282 284 288 292 297 285 274 274 302 8 49 72 93 98 98 99 100 105 115 121 121 123 125 128 131 131 131 130 130 131
Height
821 816 814 809 804 804 812 804 802 761 768 756 753 751 749 748 746 743 735 732 731 728 724 721 718 716 715 713 712 712 711 710 709 710 708 708 706 705 701 697 694 692 688 683
833 813 808 807 794 789 793 789 791 775 771 758 751 752 750 746 745 742 737 733 731 727 723 718 714 711 709 708 707 707 706 706 705 703 703 703 702 700 698 694 691 690 687 683
806 813 813 795 769 766 769 773 773 782 753 752 753 752 752 749 744 739 736 733 729 725 721 717 713 709 704 702 700 701 701 701 700 699 698 697 698 696 694 692 690 688 685 682
823 821 796 756 763 764 764 765 767 757 753 755 754 752 751 744 740 737 736 732 727 721 717 713 709 704 701 697 696 695 694 695 696 695 694 693 692 692 691 688 689 687 685 682
822 805 775 765 753 762 761 750 747 753 753 754 750 752 744 737 737 736 733 728 722 718 714 708 703 700 696 693 690 688 688 687 688 690 689 689 688 686 686 687 685 686 683 681
828 812 780 756 766 767 767 746 753 757 754 752 749 743 735 734 735 731 728 723 718 713 709 705 699 695 691 687 685 681 678 679 680 682 683 683 683 684 683 683 684 683 683 681
810 802 768 763 764 768 761 753 752 756 756 752 748 743 737 734 727 724 720 715 711 707 702 697 692 688 685 682 678 673 672 671 673 673 676 677 677 680 680 680 681 682 682 682
805 802 783 757 767 764 750 753 757 752 747 745 742 737 733 728 723 718 710 703 701 697 692 688 685 682 677 674 668 669 668 666 664 667 669 672 673 673 677 678 678 680 680 681
786 761 758 758 759 756 757 753 751 750 745 740 734 729 726 720 715 710 706 702 697 690 683 680 678 676 671 664 662 660 660 662 657 660 663 664 669 670 670 674 674 674 676 677
774 758 757 755 755 753 750 749 749 746 738 736 731 728 722 716 710 704 698 692 689 685 678 672 670 668 664 660 657 654 651 652 654 652 655 657 660 664 665 666 669 670 670 673
760 760 757 752 751 750 749 748 742 739 737 734 730 723 720 714 708 703 696 689 684 678 672 665 661 658 655 652 650 648 645 643 646 647 647 649 652 655 658 660 661 664 666 667
754 756 759 755 750 753 749 743 742 738 732 728 726 720 716 711 705 700 693 687 679 673 666 660 655 649 645 645 642 640 638 636 636 638 641 644 648 651 653 655 657 658 661 663
764 759 754 749 750 747 748 747 740 737 732 726 721 716 711 707 703 697 691 682 675 668 661 655 648 640 638 637 634 631 629 628 629 632 633 637 642 645 648 652 654 657 658 660
759 758 752 752 754 752 747 742 738 733 728 722 718 713 709 704 697 693 687 678 670 663 656 649 641 633 631 628 625 622 622 620 621 624 625 630 634 638 643 645 648 653 656 658
763 761 758 756 751 746 743 739 736 729 723 717 712 710 706 700 693 687 682 674 666 658 650 643 635 627 624 621 617 615 614 613 613 615 618 620 627 632 635 640 644 648 654 659
764 757 753 747 743 740 738 733 729 723 718 715 710 704 699 694 689 682 676 669 662 653 646 640 632 625 620 616 611 609 607 606 606 608 611 614 619 623 628 634 640 644 649 653
756 748 744 740 739 737 734 730 726 720 714 710 705 701 694 688 682 676 670 665 659 650 642 636 630 624 617 612 607 604 602 601 601 602 604 608 612 616 620 626 633 639 644 649
746 743 740 738 735 732 727 722 719 716 711 706 702 697 691 684 677 670 663 658 651 644 638 632 625 619 613 608 603 600 598 596 596 596 599 601 605 609 614 618 626 634 640 646
741 739 735 733 729 725 720 715 711 707 704 702 697 691 687 680 672 665 659 654 647 638 631 626 621 615 608 603 599 595 593 592 591 591 594 597 599 603 608 613 620 629 636 643
734 731 729 726 722 718 713 708 705 701 697 694 690 684 677 672 666 660 654 648 642 635 629 623 617 611 604 598 595 591 589 587 587 589 591 594 596 600 604 609 617 625 632 639
728 725 721 718 712 709 707 701 697 691 687 686 683 678 672 663 659 653 649 641 634 630 625 619 614 608 602 596 592 589 587 586 586 587 589 590 593 597 602 608 615 622 629 636
721 717 713 709 706 701 696 693 689 684 680 677 674 670 665 657 652 646 642 638 629 626 621 616 611 605 600 596 591 588 586 585 585 587 588 590 594 597 602 608 615 623 630 637
710 707 703 700 697 693 688 683 679 677 672 667 665 662 658 652 648 642 632 630 627 622 618 613 608 604 599 595 591 588 586 586 586 588 590 592 596 600 605 611 618 625 632 639
699 696 694 690 688 685 680 672 669 666 661 659 657 654 651 643 637 637 631 626 623 618 615 611 607 603 598 595 592 590 588 588 589 591 594 596 599 604 609 615 622 629 636 642
689 687 684 681 679 674 669 663 660 656 652 648 646 644 641 638 635 630 625 622 618 615 612 610 606 602 599 597 595 593 592 592 593 595 598 601 605 610 616 621 627 632 639 645
679 676 673 669 666 662 658 655 651 646 643 639 637 635 632 629 626 624 621 617 615 612 611 609 606 603 601 600 599 598 598 598 599 601 604 608 612 617 622 628 633 638 643 648
668 665 661 657 653 651 647 644 642 637 635 633 629 628 626 622 620 618 615 613 612 611 610 608 606 605 605 604 604 604 605 606 608 609 612 615 619 624 629 633 638 642 646 651